Location: Unspecified
(43.4354°N, 0.0000°E)
Time: 08:26:12
(UTC+00:00)

Vanguard 2 Rocket - Pass Details

Date: 24 June 2019
Orbit: 554 x 3326 km, 32.9° (Epoch: 23 July)

Event Time Altitude Azimuth Distance (km) Brightness Sun altitude
Rises 04:20:19 0° 272° (W) 6,245 10.7 -0.8°
Reaches altitude 10° 04:26:01 10° 257° (WSW) 5,645 10.3 0.1°
Maximum altitude 04:36:40 19° 220° (SW) 5,381 10.3 1.7°
Drops below altitude 10° 04:48:30 10° 183° (S) 6,264 10.9 3.6°
Sets 04:55:37 0° 169° (SSE) 7,138 11.3 4.7°
